Location: Temple Hill
(37.3073°N, 88.6303°W)
Time: 16:09:39
(UTC+00:00)

USA 234 - Pass Details

Date: 23 November 2020
Orbit: 1098 x 1110 km, 123.0° (Epoch: 17 January)

Event Time Altitude Azimuth Distance (km) Brightness Sun altitude
Rises 12:05:47 0° 40° (NE) 3,938 6.4 -7.6°
Reaches altitude 10° 12:08:25 10° 33° (NNE) 2,977 5.7 -7.1°
Maximum altitude 12:14:27 40° 327° (NNW) 1,572 3.8 -6.0°
Drops below altitude 10° 12:20:27 10° 260° (W) 2,966 5.0 -4.9°
Sets 12:23:05 0° 253° (WSW) 3,921 5.7 -4.4°
